Tracking 18945 objects as of 20-Jan-2018
HD Live streaming from Space Station
objects crossing your sky now

COSMOS 1932

Track COSMOS 1932 now!
10-day predictions
COSMOS 1932 is classified as:


NORAD ID: 18957
Int'l Code: 1988-019A
Perigee: 935.4 km
Apogee: 1,008.9 km
Inclination: 65.0 °
Period: 104.4 minutes
Semi major axis: 7343 km
RCS: 2.9305 m2 (large)
Launch date: March 14, 1988
Source: Commonwealth of Independent States (former USSR) (CIS)
Launch site: TYURATAM MISSILE AND SPACE COMPLEX (TTMTR)
aabbcc
Your satellite tracking list
Your tracking list is empty




NASA's NSSDC Master Catalog

Two Line Element Set (TLE):
1 18957U 88019A   18019.82738485 -.00000069 +00000-0 +17490-4 0  9991
2 18957 065.0449 094.2948 0050031 207.4500 152.3914 13.79673178505550
Source of the keplerian elements: AFSPC